Seldovia, AK

10:29 PM AKDT on September 19, 2017 (GMT -0800)
Seldovia

Weather History for PASO - December, 2013

Change the Weather History Date:

Tuesday, December 10, 2013

  Actual Average (PAHO) Record (PAHO)
Temperature  
Mean Temperature 34 °F -  
Max Temperature 36 °F 30 °F 48 °F (1940)
Min Temperature 33 °F 18 °F -10 °F (1955)
Degree Days  
Heating Degree Days 30    
Moisture  
Dew Point 33 °F    
Average Humidity 95    
Maximum Humidity 100    
Minimum Humidity 81    
Precipitation  
Precipitation 0.00 in - - ()
Sea Level Pressure  
Sea Level Pressure 29.95 in    
Wind  
Wind Speed 1 mph (North)    
Max Wind Speed 9 mph    
Max Gust Speed -    
Visibility 9 miles    
Events      
Averages and records for this station are not official NWS values.
T = Trace of Precipitation, MM = Missing Value Source: NWS Daily Summary

Daily Weather History Graph

Daily Weather History Graph

Search for Another Location

Airport or City:

Trip Planner

Search our weather history database for the weather conditions in past years. The results will help you decide how hot, cold, wet, or windy it might be!

Date:

Astronomy

Dec. 10, 2013 Rise Set
Actual Time 9:53 AM AKST 4:06 PM AKST
Civil Twilight 8:58 AM AKST 5:01 PM AKST
Nautical Twilight 8:03 AM AKST 5:56 PM AKST
Astronomical Twilight 7:12 AM AKST 6:46 PM AKST
Moon 1:32 PM AKST (12/10) 1:55 AM AKST (12/10)
Length of Visible Light 8h 02m
Length of Day
6h 12m
Waxing Gibbous, 63% of the Moon is Illuminated
Dec 10
Waxing Gibbous
Dec 17
Full
Dec 25
Last Quarter
Jan 1
New
Jan 7
First Quarter

Hourly Weather History & Observations

Time (AKST) Temp. Windchill Dew Point Humidity Pressure Visibility Wind Dir Wind Speed Gust Speed Precip Events Conditions
12:15 AM 33.8 °F - 33.8 °F 100% 30.17 in 2.5 mi Calm Calm - N/A   Overcast
12:22 AM 33.8 °F - 33.8 °F 100% 30.17 in 4.0 mi Calm Calm - N/A   Overcast
12:37 AM 33.8 °F - 33.8 °F 100% 30.17 in 10.0 mi Calm Calm - N/A   Overcast
12:53 AM 35.1 °F - 34.0 °F 96% 30.17 in 10.0 mi Calm Calm - N/A   Overcast
1:53 AM 35.1 °F - 35.1 °F 100% 30.16 in 10.0 mi Calm Calm - N/A   Overcast
2:53 AM 35.1 °F - 35.1 °F 100% 30.13 in 10.0 mi Calm Calm - N/A   Overcast
3:14 AM 33.8 °F - 33.8 °F 100% 30.13 in 8.0 mi Calm Calm - N/A   Overcast
3:21 AM 33.8 °F - 33.8 °F 100% 30.13 in 10.0 mi Calm Calm - N/A   Overcast
3:53 AM 34.0 °F - 34.0 °F 100% 30.12 in 10.0 mi Calm Calm - N/A   Overcast
4:21 AM 33.8 °F - 33.8 °F 100% 30.10 in 6.0 mi Calm Calm - N/A   Mostly Cloudy
4:31 AM 33.8 °F - 33.8 °F 100% 30.10 in 9.0 mi Calm Calm - N/A   Mostly Cloudy
4:53 AM 34.0 °F - 34.0 °F 100% 30.10 in 10.0 mi Calm Calm - N/A   Overcast
5:53 AM 34.0 °F - 34.0 °F 100% 30.08 in 10.0 mi Calm Calm - N/A   Overcast
6:34 AM 33.8 °F - 33.8 °F 100% 30.07 in 10.0 mi Calm Calm - N/A   Overcast
6:47 AM 33.8 °F - 33.8 °F 100% 30.06 in 10.0 mi Calm Calm - N/A   Overcast
6:53 AM 34.0 °F - 34.0 °F 100% 30.06 in 10.0 mi Calm Calm - N/A   Overcast
7:26 AM 33.8 °F - 33.8 °F 100% 30.04 in 10.0 mi Calm Calm - N/A   Overcast
7:53 AM 34.0 °F - 34.0 °F 100% 30.04 in 10.0 mi Calm Calm - N/A   Overcast
8:53 AM 34.0 °F - 34.0 °F 100% 30.01 in 10.0 mi Calm Calm - N/A   Overcast
9:53 AM 34.0 °F - 33.1 °F 96% 29.99 in 8.0 mi Calm Calm - N/A   Overcast
10:53 AM 35.1 °F 32.2 °F 34.0 °F 96% 29.99 in 8.0 mi ESE 3.5 mph - N/A   Overcast
11:53 AM 35.1 °F - 35.1 °F 100% 29.97 in 10.0 mi Calm Calm - N/A   Overcast
12:53 PM 35.1 °F - 35.1 °F 100% 29.94 in 10.0 mi Calm Calm - N/A   Overcast
1:53 PM 36.0 °F - 35.1 °F 97% 29.91 in 10.0 mi Calm Calm - N/A   Overcast
2:53 PM 36.0 °F - 35.1 °F 97% 29.88 in 10.0 mi Calm Calm - N/A   Overcast
3:53 PM 35.1 °F 32.2 °F 34.0 °F 96% 29.85 in 10.0 mi WNW 3.5 mph - N/A   Scattered Clouds
4:24 PM 33.8 °F - 33.8 °F 100% 29.84 in 10.0 mi Calm Calm - N/A   Mostly Cloudy
4:51 PM 33.8 °F 26.4 °F 33.8 °F 100% 29.83 in 10.0 mi North 9.2 mph - N/A   Scattered Clouds
4:53 PM 35.1 °F 28.6 °F 33.1 °F 92% 29.83 in 10.0 mi North 8.1 mph - N/A   Partly Cloudy
5:09 PM 35.6 °F 32.8 °F 33.8 °F 93% 29.82 in 10.0 mi Variable 3.5 mph - N/A   Mostly Cloudy
5:53 PM 35.1 °F 32.2 °F 33.1 °F 92% 29.81 in 10.0 mi Variable 3.5 mph - N/A   Overcast
6:27 PM 33.8 °F 29.6 °F 33.8 °F 100% 29.80 in 10.0 mi North 4.6 mph - N/A   Overcast
6:53 PM 35.1 °F 28.6 °F 30.9 °F 85% 29.80 in 10.0 mi North 8.1 mph - N/A   Mostly Cloudy
7:53 PM 34.0 °F 28.0 °F 30.0 °F 85% 29.79 in 10.0 mi North 6.9 mph - N/A   Mostly Cloudy
8:13 PM 33.8 °F 27.7 °F 30.2 °F 87% 29.78 in 10.0 mi North 6.9 mph - N/A   Scattered Clouds
8:53 PM 33.1 °F - 28.9 °F 85% 29.77 in 10.0 mi Calm Calm - N/A   Scattered Clouds
9:05 PM 33.8 °F 30.8 °F 28.4 °F 81% 29.77 in 10.0 mi Variable 3.5 mph - N/A   Mostly Cloudy
9:39 PM 33.8 °F 28.6 °F 28.4 °F 81% 29.76 in 10.0 mi North 5.8 mph - N/A   Overcast
9:53 PM 33.1 °F 27.7 °F 28.0 °F 82% 29.75 in 10.0 mi Variable 5.8 mph - N/A   Overcast
10:53 PM 33.1 °F 26.9 °F 28.0 °F 82% 29.74 in 10.0 mi Variable 6.9 mph - N/A   Overcast
11:00 PM 33.8 °F 27.0 °F 28.4 °F 81% 29.73 in 10.0 mi North 8.1 mph - N/A   Overcast
11:53 PM 33.1 °F 28.7 °F 28.0 °F 82% 29.72 in 10.0 mi North 4.6 mph - N/A   Overcast